Regional Weather Roundup
Issued by NWS

Home | Current Version | Previous Version | Text Only | Print | Product List | Glossary Off
Versions: 1 2 3 4 5 6 7 8 9 10 11 12 13 14 15 16 17 18 19 20 21 22 23 24 25 26 27 28 29 30 31 32 33 34 35 36 37 38 39 40 41 42 43 44 45 46 47 48 49 50

000
ASUS43 KDMX 231507
RWRIA

WEATHER ROUNDUP FOR IOWA
NATIONAL WEATHER SERVICE DES MOINES IA
1000 AM CDT SAT MAY 23 2015

NOTE: "FAIR" INDICATES FEW OR NO CLOUDS BELOW 12,000 FEET WITH NO
SIGNIFICANT WEATHER AND/OR OBSTRUCTIONS TO VISIBILITY.

* - THESE STATIONS ARE NOT NWS STATIONS...THUS NOT UNDER NWS
QUALITY CONTROL.  THEY ALSO DO NOT REPORT WEATHER SUCH
AS PRECIPITATION OR FOG.

IAZ001>003-012>014-020>022-031>034-043>046-231600-
   NORTHWEST IOWA

CITY           SKY/WX    TMP DP  RH WIND       PRES   REMARKS
CARROLL *      CLOUDY    63  52  67 SE14G20   30.23R
CHEROKEE *     CLOUDY    63  52  67 SE9       30.22R
DENISON *      CLOUDY    63  55  77 SE9       30.19F
LE MARS *      CLOUDY    63  52  67 S10       30.22R
ORANGE CITY *  CLOUDY    61  50  67 SE9       30.21R
SHELDON *      CLOUDY    63  48  59 SE12      30.21R
SIOUX CITY     CLOUDY    61  51  70 SE7       30.20R
SPENCER        CLOUDY    63  50  62 E13       30.23F
STORM LAKE *   CLOUDY    63  50  63 SE13      30.23R
$$

IAZ055>058-069>071-079>083-090>094-231600-
   SOUTHWEST IOWA

CITY           SKY/WX    TMP DP  RH WIND       PRES   REMARKS
ATLANTIC *     CLOUDY    61  52  72 S12G17    30.22F
AUDUBON *      CLOUDY    64  54  68 S7        30.22F
CLARINDA *     CLOUDY    59  52  77 SE8       30.24S
COUNCIL BLFS * CLOUDY    59  57  94 S17       30.21S
CRESTON *      PTSUNNY   59  55  88 S7        30.25R
HARLAN  *      CLOUDY    64  55  72 S15       30.24F
LAMONI         CLOUDY    64  54  69 SE6       30.25R
RED OAK *      CLOUDY    61  54  77 SE10      30.22S
SHENANDOAH *   CLOUDY    59  54  82 SE12      30.23S
$$

IAZ047>049-059>061-072>074-084-231600-
   CENTRAL IOWA

CITY           SKY/WX    TMP DP  RH WIND       PRES   REMARKS
AMES           PTSUNNY   68  50  52 SE9       30.25F
ANKENY *       PTSUNNY   68  54  60 SE13      30.25S
CHARITON *     MOSUNNY   66  50  55 S13G20    30.25S
DES MOINES     PTSUNNY   68  52  56 S9        30.25F
GRINNELL*      SUNNY     68  48  49 SE10      30.26F
KNOXVILLE *    SUNNY     66  52  59 S12       30.25R
MARSHALLTOWN   SUNNY     69  46  43 SE10      30.25F
PELLA *        SUNNY     70  57  64 SE9       30.28R
PERRY *        CLOUDY    66  52  59 SE13      30.25R
$$

IAZ004>006-015-016-023>025-035-036-231600-
   NORTH CENTRAL IOWA

CITY           SKY/WX    TMP DP  RH WIND       PRES   REMARKS
ALGONA *       CLOUDY    64  50  59 SE9       30.25S
CLARION *      CLOUDY    68  43  40 SE10G16   30.25F
ESTHERVILLE    CLOUDY    61  47  59 SE15      30.24F
FORT DODGE *   CLOUDY    66  48  52 SE8       30.25R
MASON CITY     PTSUNNY   66  46  48 E8        30.26F
FOREST CITY *    N/A     64  46  52 E6        30.26S
IOWA FALLS *     N/A     68  45  42 SE7       30.27S
$$

IAZ007>011-017>019-026>030-037>042-050>054-066-231600-
   NORTHEAST IOWA

CITY           SKY/WX    TMP DP  RH WIND       PRES   REMARKS
CEDAR RAPIDS   MOSUNNY   69  51  52 S8        30.26F
CHARLES CITY * CLOUDY    66  46  48 SE7       30.26F
CLINTON *      SUNNY     70  48  46 S7        30.32F
DECORAH *      PTSUNNY   63  48  59 CALM      30.26F
DUBUQUE        MOSUNNY   65  47  52 S8        30.30F
MONTICELLO *   SUNNY     72  48  43 VRB7      30.28F
OELWEIN *      PTSUNNY   66  50  55 SE8       30.27F
WATERLOO       PTSUNNY   65  51  60 S5        30.25F
$$

IAZ064-065-067-068-078-231600-
   EAST CENTRAL IOWA

CITY           SKY/WX    TMP DP  RH WIND       PRES   REMARKS
DAVENPORT      SUNNY     71  53  52 S12       30.30F
IOWA CITY      MOSUNNY   69  53  56 S9        30.29F
MT. PLEASANT * SUNNY     72  46  40 SE8       30.28F
MUSCATINE *    SUNNY     72  54  53 S7        30.29F
QUAD CITIES    SUNNY     71  53  52 S6        30.29F
$$

IAZ062-063-075>077-085>089-095>099-231600-
   SOUTHEAST IOWA

CITY           SKY/WX    TMP DP  RH WIND       PRES   REMARKS
BURLINGTON     SUNNY     71  54  54 SE6       30.29F
FAIRFIELD *    SUNNY     70  50  49 S14       30.28F
FORT MADISON * MOSUNNY   70  54  56 S7        30.30F
KEOKUK *       PTSUNNY   70  54  56 S8        30.29F
OSKALOOSA *      N/A     68  50  52 S13       30.27F
CENTERVILLE *  SUNNY     64  64 100 SE7       30.28S
OTTUMWA        SUNNY     67  51  56 SE15      30.26F
WASHINGTON *   PTSUNNY   70  48  46 SE9       30.29F
$$

ABBREVIATIONS USED IN REMARKS
   TC - TEMPERATURES IN CELSIUS
  WCI - WIND CHILL INDEX
   HX - HEAT INDEX
  VSB - VISIBILITY
$$




USA.gov is the U.S. government's official web portal to all federal, state and local government web resources and services.